weather.gov     
National Weather Service

Regional Weather Roundup
NWS Homepage
This page is being discontinued on March 12, 2014.
The same data is available at this site. Please update your bookmarks.
Thank you, and we apologize for the inconvenience.
Please send an email to SR-SRH.Webmaster@noaa.gov with any concerns.


Current Version
Previous Version:    01  02  03  04  05  06  07  08  09  10  11  12  13  14  15  16  17  18  19  20  21  22  23  24  25  26  27  28  29  30  
   31  32  33  34  35  36  37  38  39  40  41  42  43  44  45  46  47  48  49  50  51  52  53  
[Printable]
975
ASUS42 KMHX 311322
RWRMHX
WEATHER ROUNDUP FOR EASTERN NORTH CAROLINA
NATIONAL WEATHER SERVICE NEWPORT/MOREHEAD CITY NC
900 AM EDT THU JUL 31 2014

NOTE: "FAIR" INDICATES FEW OR NO CLOUDS BELOW 12,000 FEET
WITH NO SIGNIFICANT WEATHER AND/OR OBSTRUCTIONS TO VISIBILITY

NCZ015>017-031-032-045>047-102-103-311400-
NORTH COAST

CITY           SKY/WX    TMP DP  RH WIND       PRES   REMARKS
EDENTON        PTSUNNY   75  68  77 SE5       30.14S
ELIZABETH CITY PTSUNNY   75  68  78 CALM      30.14R
KITTY HAWK     PTSUNNY   78  65  64 E3        30.13S
MANTEO         NOT AVBL

$$

NCZ045>047-081-094-103-104-311400-
CENTRAL COAST

CITY           SKY/WX    TMP DP  RH WIND       PRES   REMARKS
FRISCO         PTSUNNY   80  66  62 E6        30.13R
SWANQUARTER      N/A     77 N/A N/A NE5       30.09S

$$

NCZ095-097-098-100-101-311400-
SOUTHERN COAST

CITY           SKY/WX    TMP DP  RH WIND       PRES   REMARKS
BEAUFORT       CLOUDY    79  70  74 NE5       30.12R
CEDAR ISLAND     N/A     81 N/A N/A E12       30.18R
JACKSONVILLE   CLOUDY    76  68  76 E8        30.11R
NEWPORT        NOT AVBL
PINEY ISLAND   NOT AVBL
WILMINGTON     CLOUDY    77  70  79 NE5       30.09R


$$

NCZ011>013-027>030-043-044-078>080-089-090>093-098-311400-
COASTAL PLAIN

CITY           SKY/WX    TMP DP  RH WIND       PRES   REMARKS
AHOSKIE        PTSUNNY   70  66  86 CALM      30.14S
CLINTON        CLOUDY    74  69  84 CALM      30.12R
ELIZABETHTOWN  CLOUDY    71  69  92 CALM      30.11R
GOLDSBORO      CLOUDY    72  71  98 E6        30.11R
GREENVILLE     PTSUNNY   72  68  88 E5        30.14S
HAVELOCK       CLOUDY    77  69  76 E6        30.13R
KENANSVILLE    CLOUDY    73  68  82 CALM      30.13R
KINSTON        CLOUDY    72  68  88 E3        30.13R
NEW BERN       CLOUDY    77  68  73 E6        30.13R
RICHLANDS      CLOUDY    75  66  73 E8        30.12S
ROANOKE RAPIDS NOT AVBL
ROCKY MOUNT    PTSUNNY   73  67  81 NE3       30.13R
WASHINGTON     PTSUNNY   72  66  83 CALM      30.14S
WHITEVILLE     CLOUDY    73  69  86 NE3       30.09S

$$

AMZ130-135-150-152-154-156-158-170-250-252-270-ANZ085-086-088-633-658-670-311400-
MARINE OBSERVATIONS

STATION/POSITION TIME  TEMP    WIND        PRES    WAVE   SWELL
                       AIR SEA DIR/SP/G            HT/PER HT/PER
                 (UTC) (F)     (DEG/KT/KT) (MB)    (FT/S) (FT/S)
CHESAPEAKE LIGHT NOT AVBL
BUOY 44014       1300   76 78  140/  2/  4 1020.3    2/ 8   2/ 8
DUCK             1300   77 76  120/  4/  5 1019.9
2E DUCK          1300                        N/A     2/ 7
OREGON INLET     1300   77 78   60/  5/  7 1020.5
BUOY 44095       1300      77                N/A     3/ 7
20E OREGON INLET NOT AVBL
HATTERAS CG      1300   79 79   50/  5/  8 1020.5
DIAMOND BUOY     1300          VRB 10/ 12  1019.5    4/ 8   3/ 8
CAPE LOOKOUT     1300   80      80/ 13/ 14 1019.6
BEAUFORT LAB     1300   78 81   50/  3/  5 1019.2
30 SE NEW RIVER  1300   80 81   80/ 14/ 17 1019.1    4/ 7   2/ 7
5 SE WRIGHTSVILL 1300   77 81   90/ 14/ 17   N/A
BUOY 41002       1242   80 80   70/ 12/ 12 1018.4    3/ 6   3/ 6
BUOY 41004       1300   82 83   80/ 16/ 17 1016.3    3/ 5   2/ 8

$$




U.S. Dept. of Commerce
NOAA National Weather Service
1325 East West Highway
Silver Spring, MD 20910
E-mail: w-nws.webmaster@noaa.gov
Page last modified: May 16, 2007
NATIONAL WEATHER SERVICE: for Safety, for Work, for Fun - FOR LIFE